����,�O�C���x,�����t���O,�O�C���x,�����t���O,�󒲎����x,�����t���O,�󒲎����x,�����t���O,��󒲎����x,�����t���O,����,�����t���O
2003/3/1 0:00,11.4,0,60,0,20.5,0,54.1,0,14.5,0,12.9,0
2003/3/1 0:15,11.1,0,64,0,20.3,0,54.4,0,14.6,0,13,0
2003/3/1 0:30,10.9,0,67,0,20.2,0,54.6,0,14.6,0,13,0
2003/3/1 0:45,10.6,0,71,0,20.1,0,55.1,0,14.6,0,13.1,0
2003/3/1 1:00,10.7,0,71,0,20,0,55.9,0,14.6,0,13.1,0
2003/3/1 1:15,10.5,0,73,0,19.9,0,55.9,0,14.6,0,13.2,0
2003/3/1 1:30,10.5,0,75,0,19.9,0,55.5,0,14.6,0,13.2,0
2003/3/1 1:45,10.4,0,74,0,19.8,0,55.2,0,14.6,0,13.3,0
2003/3/1 2:00,10.4,0,73,0,19.8,0,55,0,14.6,0,13.3,0
2003/3/1 2:15,10.3,0,75,0,19.7,0,54.9,0,14.6,0,13.4,0
2003/3/1 2:30,10.3,0,77,0,19.7,0,54.7,0,14.6,0,13.4,0
2003/3/1 2:45,10.1,0,78,0,19.6,0,54.7,0,14.6,0,13.5,0
2003/3/1 3:00,10.1,0,80,0,19.5,0,54.7,0,14.6,0,13.5,0
2003/3/1 3:15,10,0,82,0,19.5,0,54.8,0,14.5,0,13.6,0
2003/3/1 3:30,9.9,0,84,0,19.4,0,54.7,0,14.5,0,13.6,0
2003/3/1 3:45,9.8,0,85,0,19.3,0,54.7,0,14.5,0,13.6,0
2003/3/1 4:00,9.9,0,85,0,19.3,0,54.7,0,14.5,0,13.7,0
2003/3/1 4:15,9.8,0,85,0,19.3,0,54.8,0,14.5,0,13.7,0
2003/3/1 4:30,9.8,0,85,0,19.2,0,54.8,0,14.5,0,13.8,0
2003/3/1 4:45,9.9,0,86,0,19.1,0,54.5,0,14.5,0,13,0
2003/3/1 5:00,9.8,0,86,0,19,0,54.7,0,14.5,0,13,0
2003/3/1 5:15,9.8,0,87,0,18.9,0,54.7,0,14.5,0,13,0
2003/3/1 5:30,9.7,0,89,0,18.7,0,55.1,0,14.5,0,13.1,0
2003/3/1 5:45,9.8,0,90,0,18.6,0,55.4,0,14.5,0,13.1,0
2003/3/1 6:00,9.8,0,92,0,18.4,0,55.6,0,14.5,0,13.2,0
2003/3/1 6:15,9.8,0,92,0,18.3,0,55.8,0,14.5,0,13.2,0
2003/3/1 6:30,9.8,0,93,0,18.2,0,55.9,0,14.4,0,13.2,0
2003/3/1 6:45,9.9,0,93,0,18,0,56.2,0,14.4,0,13.3,0
2003/3/1 7:00,9.9,0,94,0,17.9,0,56.4,0,14.4,0,13.3,0
2003/3/1 7:15,10,0,95,0,17.8,0,56.6,0,14.4,0,13.4,0
2003/3/1 7:30,10.1,0,95,0,17.7,0,57.1,0,14.4,0,13.4,0
2003/3/1 7:45,10.2,0,95,0,17.6,0,57.3,0,14.4,0,12.4,0
2003/3/1 8:00,10.3,0,95,0,17.6,0,58.1,0,14.4,0,12.5,0
2003/3/1 8:15,10.6,0,96,0,17.6,0,58.6,0,14.3,0,12.6,0
2003/3/1 8:30,10.8,0,97,0,17.5,0,58.7,0,14.3,0,12.6,0
2003/3/1 8:45,10.9,0,96,0,17.6,0,60,0,14.3,0,12.7,0
2003/3/1 9:00,11,0,97,0,17.8,0,60.1,0,14.3,0,12.7,0
2003/3/1 9:15,11.3,0,97,0,18,0,59.8,0,14.3,0,12.8,0
2003/3/1 9:30,11.6,0,96,0,18.3,0,59.4,0,14.3,0,12.8,0
2003/3/1 9:45,11.9,0,95,0,18.5,0,59.1,0,14.3,0,12.9,0
2003/3/1 10:00,11.8,0,95,0,18.6,0,59.1,0,14.3,0,12.9,0
2003/3/1 10:15,11.8,0,95,0,18.6,0,58.8,0,14.4,0,12.4,0
2003/3/1 10:30,12.1,0,96,0,18.6,0,58.7,0,14.4,0,12.5,0
2003/3/1 10:45,12.2,0,95,0,18.6,0,58.6,0,14.4,0,12.5,0
2003/3/1 11:00,12.3,0,96,0,18.6,0,58.9,0,14.4,0,12.5,0
2003/3/1 11:15,12.6,0,96,0,18.7,0,59.2,0,14.5,0,12.6,0
2003/3/1 11:30,12.8,0,96,0,18.7,0,59.2,0,14.5,0,12.7,0
2003/3/1 11:45,13,0,96,0,18.7,0,59.2,0,14.5,0,12.2,0
2003/3/1 12:00,13.2,0,95,0,18.8,0,60,0,14.5,0,12.1,0
2003/3/1 12:15,13.4,0,95,0,18.9,0,60.8,0,14.5,0,12.1,0
2003/3/1 12:30,13.7,0,94,0,19,0,60.8,0,14.6,0,12.2,0
2003/3/1 12:45,13.6,0,94,0,19,0,60.2,0,14.6,0,12.3,0
2003/3/1 13:00,13.8,0,94,0,18.9,0,59.3,0,14.7,0,12.3,0
2003/3/1 13:15,13.6,0,95,0,18.9,0,58.9,0,14.8,0,12.4,0
2003/3/1 13:30,13,0,96,0,18.9,0,58.9,0,14.8,0,12.4,0
2003/3/1 13:45,12.7,0,98,0,18.9,0,59,0,14.9,0,12.5,0
2003/3/1 14:00,12.3,0,99,0,19,0,59.7,0,14.9,0,12.4,0
2003/3/1 14:15,12.1,0,99,0,19,0,59.7,0,14.9,0,12.5,0
2003/3/1 14:30,12,0,99,0,19,0,59.6,0,15,0,12.5,0
2003/3/1 14:45,11.8,0,99,0,19,0,59.7,0,15,0,12.6,0
2003/3/1 15:00,11.7,0,99,0,19,0,59.9,0,15,0,12.7,0
2003/3/1 15:15,11,0,99,0,19,0,59.8,0,15,0,12.7,0
2003/3/1 15:30,10.7,0,99,0,19,0,59.6,0,15,0,12.8,0
2003/3/1 15:45,10.4,0,99,0,19,0,59.6,0,15,0,12.8,0
2003/3/1 16:00,10.3,0,99,0,19,0,59.5,0,15,0,12.9,0
2003/3/1 16:15,10.2,0,98,0,18.9,0,59.4,0,15,0,12.9,0
2003/3/1 16:30,10.1,0,96,0,18.9,0,59.4,0,15,0,13,0
2003/3/1 16:45,10.2,0,95,0,18.9,0,59.3,0,14.9,0,13,0
2003/3/1 17:00,10.1,0,95,0,18.9,0,59.1,0,14.9,0,13.1,0
2003/3/1 17:15,10.1,0,92,0,18.9,0,59,0,14.9,0,13.1,0
2003/3/1 17:30,10.1,0,93,0,18.9,0,59.1,0,14.9,0,13.2,0
2003/3/1 17:45,10.1,0,93,0,18.9,0,59.1,0,14.9,0,13.2,0
2003/3/1 18:00,10.1,0,90,0,18.9,0,59,0,14.9,0,13.3,0
2003/3/1 18:15,10,0,91,0,18.9,0,58.9,0,14.9,0,13.3,0
2003/3/1 18:30,10.1,0,91,0,18.9,0,59,0,14.9,0,12.7,0
2003/3/1 18:45,10.1,0,89,0,18.9,0,59.1,0,14.9,0,12.8,0
2003/3/1 19:00,10,0,88,0,18.9,0,58.9,0,14.9,0,12.8,0
2003/3/1 19:15,9.8,0,88,0,19,0,58.9,0,14.9,0,12.9,0
2003/3/1 19:30,9.6,0,90,0,19.1,0,58.2,0,14.9,0,12.9,0
2003/3/1 19:45,9.4,0,91,0,19.3,0,57.8,0,14.8,0,13,0
2003/3/1 20:00,9.3,0,91,0,19.3,0,57.3,0,14.8,0,13,0
2003/3/1 20:15,9.4,0,89,0,19.3,0,57.2,0,14.8,0,12.5,0
2003/3/1 20:30,9.4,0,87,0,19.3,0,57.4,0,14.8,0,12.6,0
2003/3/1 20:45,9.1,0,87,0,19.4,0,57.2,0,14.8,0,12.6,0
2003/3/1 21:00,9.1,0,86,0,19.4,0,57.3,0,14.7,0,12.7,0
2003/3/1 21:15,9,0,89,0,19.3,0,56.9,0,14.7,0,12.7,0
2003/3/1 21:30,9.1,0,89,0,19.2,0,56.8,0,14.7,0,12.8,0
2003/3/1 21:45,9.1,0,90,0,19.2,0,56.8,0,14.7,0,12.4,0
2003/3/1 22:00,8.9,0,90,0,19.1,0,56.8,0,14.7,0,12.2,0
2003/3/1 22:15,9,0,85,0,19,0,56.6,0,14.6,0,12.3,0
2003/3/1 22:30,9,0,76,0,19,0,56.7,0,14.6,0,12.3,0
2003/3/1 22:45,9.2,0,73,0,19,0,57.1,0,14.6,0,12.4,0
2003/3/1 23:00,9.3,0,69,0,19.1,0,57.9,0,14.5,0,12.4,0
2003/3/1 23:15,9.4,0,67,0,19.3,0,57.3,0,14.5,0,12.5,0
2003/3/1 23:30,9.4,0,68,0,19.4,0,56.7,0,14.5,0,12.5,0
2003/3/1 23:45,9.3,0,69,0,19.5,0,56.2,0,14.5,0,12.6,0
2003/3/2 0:00,9.4,0,69,0,19.6,0,55.8,0,14.5,0,12.3,0
2003/3/2 0:15,9.4,0,70,0,19.7,0,56,0,14.4,0,12.3,0
2003/3/2 0:30,9.4,0,70,0,19.7,0,55.8,0,14.4,0,12.4,0
2003/3/2 0:45,9.3,0,71,0,19.7,0,55.8,0,14.4,0,12,0
2003/3/2 1:00,9.2,0,73,0,19.7,0,55.7,0,14.4,0,12.1,0
2003/3/2 1:15,9.2,0,70,0,19.5,0,55.8,0,14.4,0,12.2,0
2003/3/2 1:30,9.1,0,68,0,19.4,0,55.9,0,14.3,0,12.2,0
2003/3/2 1:45,8.9,0,69,0,19.2,0,56.2,0,14.3,0,12.2,0
2003/3/2 2:00,8.8,0,68,0,19.1,0,56.2,0,14.3,0,12.3,0
2003/3/2 2:15,8.6,0,69,0,19,0,56.2,0,14.3,0,12.3,0
2003/3/2 2:30,8.5,0,73,0,19,0,56.2,0,14.2,0,12.4,0
2003/3/2 2:45,8.3,0,74,0,18.9,0,56.1,0,14.2,0,12.4,0
2003/3/2 3:00,8.3,0,76,0,18.9,0,56.1,0,14.2,0,12.5,0
2003/3/2 3:15,8.3,0,78,0,18.8,0,56.2,0,14.2,0,12.5,0
2003/3/2 3:30,8.2,0,79,0,18.7,0,56,0,14.1,0,12.6,0
2003/3/2 3:45,7.9,0,83,0,18.7,0,56.1,0,14.1,0,12.6,0
2003/3/2 4:00,7.9,0,81,0,18.6,0,56,0,14.1,0,12.4,0
2003/3/2 4:15,7.8,0,78,0,18.5,0,56,0,14.1,0,12.4,0
2003/3/2 4:30,7.8,0,79,0,18.3,0,56.1,0,14,0,12.5,0
2003/3/2 4:45,7.8,0,78,0,18.1,0,56.5,0,14,0,12.5,0
2003/3/2 5:00,7.4,0,79,0,18,0,57,0,14,0,12.5,0
2003/3/2 5:15,7.4,0,80,0,17.8,0,57.7,0,14,0,12.6,0
2003/3/2 5:30,7.2,0,81,0,17.6,0,58.3,0,14,0,12.6,0
2003/3/2 5:45,7.1,0,82,0,17.5,0,58.8,0,14,0,12.7,0
2003/3/2 6:00,7,0,81,0,17.3,0,59.4,0,14,0,12.7,0
2003/3/2 6:15,6.8,0,82,0,17.1,0,59.7,0,14,0,12.7,0
2003/3/2 6:30,7,0,83,0,17,0,59.7,0,13.9,0,12.8,0
2003/3/2 6:45,7.1,0,83,0,16.9,0,59.7,0,13.9,0,12.8,0
2003/3/2 7:00,7.3,0,83,0,16.7,0,59.8,0,13.9,0,12.8,0
2003/3/2 7:15,7.1,0,83,0,16.6,0,59.4,0,13.9,0,12.2,0
2003/3/2 7:30,7.1,0,82,0,16.3,0,56.6,0,13.8,0,12.2,0
2003/3/2 7:45,7.1,0,82,0,16.2,0,55.9,0,13.8,0,12.3,0
2003/3/2 8:00,7.3,0,81,0,16.1,0,56,0,13.8,0,12.3,0
2003/3/2 8:15,7.3,0,84,0,16.1,0,56.7,0,13.8,0,12.4,0
2003/3/2 8:30,8,0,83,0,16.3,0,56.7,0,13.8,0,12.4,0
2003/3/2 8:45,8.6,0,79,0,16.5,0,56.4,0,13.9,0,12.4,0
2003/3/2 9:00,9.1,0,75,0,16.9,0,57.4,0,13.9,0,12.2,0
2003/3/2 9:15,10.1,0,71,0,17.3,0,57.3,0,14,0,12.2,0
2003/3/2 9:30,11.1,0,64,0,17.6,0,57.2,0,14.1,0,12.2,0
2003/3/2 9:45,11.9,0,61,0,17.8,0,56.9,0,14.3,0,12.1,0
2003/3/2 10:00,12.5,0,58,0,18,0,57,0,14.4,0,12,0
2003/3/2 10:15,13.3,0,54,0,18.3,0,56.8,0,14.5,0,12.1,0
2003/3/2 10:30,14.2,0,50,0,18.5,0,56.4,0,14.7,0,12.1,0
2003/3/2 10:45,14.7,0,48,0,18.6,0,55.9,0,14.8,0,12.2,0
2003/3/2 11:00,15,0,48,0,18.9,0,55.7,0,15,0,12.2,0
2003/3/2 11:15,15,0,46,0,19,0,55.6,0,15.1,0,12.2,0
2003/3/2 11:30,14.9,0,46,0,19.2,0,55.2,0,15.2,0,12.3,0
2003/3/2 11:45,15.1,0,48,0,19.3,0,55.9,0,15.4,0,12.3,0
2003/3/2 12:00,14.5,0,48,0,19.5,0,57.2,0,15.5,0,12.3,0
2003/3/2 12:15,14,0,45,0,19.6,0,57.1,0,15.6,0,12.3,0
2003/3/2 12:30,14.4,0,41,0,19.8,0,60.7,0,15.7,0,12.4,0
2003/3/2 12:45,14.6,0,38,0,20.1,0,62.4,0,15.8,0,12.4,0
2003/3/2 13:00,14.4,0,41,0,20.1,0,57.7,0,16,0,12.5,0
2003/3/2 13:15,14.4,0,43,0,20.1,0,58.6,0,16.2,0,12.5,0
2003/3/2 13:30,14.2,0,43,0,20.2,0,58.9,0,16.3,0,12.6,0
2003/3/2 13:45,14,0,44,0,20.2,0,58.6,0,16.3,0,12.6,0
2003/3/2 14:00,14.3,0,44,0,20.2,0,58.8,0,16.3,0,12.7,0
2003/3/2 14:15,14.5,0,45,0,20.1,0,58.8,0,16.3,0,12.7,0
2003/3/2 14:30,14.6,0,45,0,20,0,58.9,0,16.3,0,12.8,0
2003/3/2 14:45,14.7,0,46,0,19.9,0,58.9,0,16.3,0,12.8,0
2003/3/2 15:00,14.9,0,46,0,19.8,0,59,0,16.3,0,12.9,0
2003/3/2 15:15,15.5,0,46,0,19.8,0,59,0,16.3,0,12.9,0
2003/3/2 15:30,15.9,0,44,0,19.7,0,59.1,0,16.3,0,13,0
2003/3/2 15:45,15.7,0,48,0,19.6,0,59,0,16.3,0,13.1,0
2003/3/2 16:00,16,0,47,0,19.5,0,58.9,0,16.3,0,13.1,0
2003/3/2 16:15,16.1,0,44,0,19.5,0,59,0,16.3,0,13.2,0
2003/3/2 16:30,16,0,44,0,19.4,0,59,0,16.3,0,13.2,0
2003/3/2 16:45,16,0,43,0,19.3,0,59.1,0,16.3,0,13.3,0
2003/3/2 17:00,15.6,0,43,0,19.3,0,58.3,0,16.3,0,13.3,0
2003/3/2 17:15,15.3,0,44,0,19.2,0,58.2,0,16.3,0,13.4,0
2003/3/2 17:30,15,0,46,0,19.1,0,58.8,0,16.3,0,12.6,0
2003/3/2 17:45,14.7,0,48,0,19.1,0,58.8,0,16.3,0,12.6,0
2003/3/2 18:00,14.4,0,49,0,19.2,0,59.4,0,16.3,0,12.7,0
2003/3/2 18:15,14.2,0,50,0,19.4,0,60.5,0,16.3,0,12.7,0
2003/3/2 18:30,13.7,0,53,0,19.6,0,60.1,0,16.4,0,12.8,0
2003/3/2 18:45,13.4,0,44,0,19.7,0,58.9,0,16.4,0,12.8,0
2003/3/2 19:00,13.2,0,43,0,19.9,0,58.4,0,16.4,0,12.9,0
2003/3/2 19:15,12.8,0,47,0,20,0,58.4,0,16.4,0,12.9,0
2003/3/2 19:30,12.5,0,50,0,20,0,57.7,0,16.4,0,12.6,0
2003/3/2 19:45,12.4,0,53,0,20.1,0,57.1,0,16.4,0,12.7,0
2003/3/2 20:00,12.3,0,54,0,20.1,0,56.7,0,16.3,0,12.7,0
2003/3/2 20:15,12,0,56,0,20.1,0,57.2,0,16.3,0,12.6,0
2003/3/2 20:30,11.8,0,56,0,20.2,0,57.1,0,16.3,0,12.5,0
2003/3/2 20:45,11.6,0,56,0,20.2,0,57.4,0,16.2,0,12.6,0
2003/3/2 21:00,11.3,0,56,0,20.3,0,57.9,0,16.2,0,12.6,0
2003/3/2 21:15,11.2,0,57,0,20.3,0,57.4,0,16.2,0,12.7,0
2003/3/2 21:30,11.1,0,58,0,20.3,0,57.1,0,16.1,0,12.5,0
2003/3/2 21:45,11.1,0,58,0,20.4,0,56.6,0,16.1,0,12.6,0
2003/3/2 22:00,11.2,0,58,0,20.4,0,56.3,0,16.1,0,12.6,0
2003/3/2 22:15,11.2,0,58,0,20.4,0,56.3,0,16.1,0,12.7,0
2003/3/2 22:30,11,0,61,0,20.4,0,56,0,16,0,12.7,0
2003/3/2 22:45,10.8,0,66,0,20.3,0,56.2,0,16,0,12.8,0
2003/3/2 23:00,10.5,0,69,0,20.4,0,56.1,0,16,0,12.9,0
2003/3/2 23:15,10.4,0,71,0,20.4,0,55.9,0,16,0,12.9,0
2003/3/2 23:30,10.4,0,72,0,20.3,0,55.9,0,16,0,13,0
2003/3/2 23:45,10.2,0,72,0,20.3,0,55.8,0,15.9,0,13,0
2003/3/3 0:00,10.1,0,71,0,20.3,0,55.9,0,15.9,0,13.1,0
2003/3/3 0:15,10.1,0,70,0,20.3,0,56.3,0,15.8,0,13.2,0
2003/3/3 0:30,10.2,0,69,0,20.3,0,57.7,0,15.8,0,13.2,0
2003/3/3 0:45,10.4,0,68,0,20.3,0,57.7,0,15.7,0,13.3,0
2003/3/3 1:00,10.8,0,67,0,20.2,0,57.4,0,15.7,0,13.3,0
2003/3/3 1:15,10.8,0,68,0,20.1,0,57.4,0,15.7,0,12.4,0
2003/3/3 1:30,10.6,0,69,0,20.1,0,57.6,0,15.7,0,12.5,0
2003/3/3 1:45,10.5,0,70,0,20,0,57.4,0,15.7,0,12.6,0
2003/3/3 2:00,10.4,0,71,0,19.8,0,57.5,0,15.7,0,12.7,0
2003/3/3 2:15,10.3,0,71,0,19.7,0,57.7,0,15.7,0,12.7,0
2003/3/3 2:30,10.2,0,73,0,19.5,0,57.9,0,15.7,0,12.8,0
2003/3/3 2:45,10.1,0,74,0,19.3,0,58.2,0,15.7,0,12.8,0
2003/3/3 3:00,10.2,0,74,0,19.1,0,58.2,0,15.7,0,12.9,0
2003/3/3 3:15,10.4,0,73,0,19,0,58.3,0,15.6,0,13,0
2003/3/3 3:30,10.5,0,73,0,18.8,0,58.7,0,15.6,0,13,0
2003/3/3 3:45,10.5,0,73,0,18.7,0,58.7,0,15.6,0,13.1,0
2003/3/3 4:00,10.6,0,75,0,18.5,0,58.3,0,15.5,0,13.1,0
2003/3/3 4:15,10.6,0,76,0,18.4,0,58.5,0,15.5,0,13.2,0
2003/3/3 4:30,10.5,0,79,0,18.3,0,58.7,0,15.5,0,13.2,0
2003/3/3 4:45,10.6,0,81,0,18.2,0,58.8,0,15.4,0,13.3,0
2003/3/3 5:00,10.5,0,83,0,18.1,0,59,0,15.4,0,13.3,0
2003/3/3 5:15,10.6,0,83,0,18,0,59.1,0,15.4,0,13.4,0
2003/3/3 5:30,11,0,84,0,17.9,0,59.1,0,15.3,0,13.4,0
2003/3/3 5:45,11.1,0,86,0,17.8,0,59.4,0,15.3,0,13.5,0
2003/3/3 6:00,11.2,0,87,0,17.7,0,59.8,0,15.3,0,13.5,0
2003/3/3 6:15,11.2,0,89,0,17.6,0,60,0,15.2,0,13.6,0
2003/3/3 6:30,11.4,0,90,0,17.6,0,59.9,0,15.2,0,13.6,0
2003/3/3 6:45,11.4,0,91,0,17.5,0,60.3,0,15.2,0,13.7,0
2003/3/3 7:00,11.6,0,92,0,17.5,0,60.9,0,15.2,0,13.7,0
2003/3/3 7:15,11.8,0,93,0,17.6,0,62.2,0,15.1,0,13.8,0
2003/3/3 7:30,12.1,0,94,0,17.9,0,62.6,0,15.1,0,12.9,0
2003/3/3 7:45,12.3,0,95,0,18.1,0,62.7,0,15.1,0,13,0
2003/3/3 8:00,12.5,0,94,0,18.2,0,62.1,0,15.1,0,13.1,0
2003/3/3 8:15,12.6,0,95,0,18.4,0,62.1,0,15,0,13.1,0
2003/3/3 8:30,12.8,0,95,0,18.4,0,62.2,0,15.1,0,13.1,0
2003/3/3 8:45,12.8,0,95,0,18.5,0,62.1,0,15.1,0,13.2,0
2003/3/3 9:00,13,0,97,0,18.6,0,61.9,0,15.1,0,13.3,0
2003/3/3 9:15,13.1,0,99,0,18.6,0,61.7,0,15.1,0,13.3,0
2003/3/3 9:30,13.2,0,99,0,18.6,0,61.5,0,15.1,0,12.8,0
2003/3/3 9:45,12.9,0,99,0,18.6,0,61,0,15.2,0,12.8,0
2003/3/3 10:00,12.7,0,99,0,18.5,0,61.3,0,15.3,0,12.9,0
2003/3/3 10:15,12.5,0,99,0,18.4,0,61.3,0,15.4,0,13,0
2003/3/3 10:30,12.3,0,99,0,18.3,0,61.5,0,15.4,0,12.7,0
2003/3/3 10:45,12.3,0,99,0,18.2,0,61.9,0,15.4,0,12.8,0
2003/3/3 11:00,12.2,0,99,0,18.1,0,61.9,0,15.4,0,12.8,0
2003/3/3 11:15,11.8,0,99,0,18.1,0,62.6,0,15.4,0,12.9,0
2003/3/3 11:30,11.7,0,99,0,18,0,63.2,0,15.3,0,12.9,0
2003/3/3 11:45,11.5,0,99,0,18,0,63.1,0,15.3,0,13,0
2003/3/3 12:00,11.4,0,99,0,17.9,0,62.9,0,15.3,0,13.1,0
2003/3/3 12:15,11.3,0,99,0,17.9,0,63,0,15.3,0,13.1,0
2003/3/3 12:30,11.3,0,97,0,17.8,0,63,0,15.3,0,13.2,0
2003/3/3 12:45,11.4,0,90,0,17.7,0,63.3,0,15.3,0,13.2,0
2003/3/3 13:00,12.2,0,81,0,17.7,0,63.8,0,15.3,0,12.8,0
2003/3/3 13:15,13.1,0,72,0,17.9,0,64.3,0,15.3,0,12.8,0
2003/3/3 13:30,13.6,0,68,0,18.1,0,63.4,0,15.4,0,12.9,0
2003/3/3 13:45,13.7,0,65,0,18.2,0,62.6,0,15.5,0,12.9,0
2003/3/3 14:00,11.9,0,70,0,18.2,0,62.2,0,15.5,0,13,0
2003/3/3 14:15,10.7,0,79,0,18.1,0,62.1,0,15.6,0,13,0
2003/3/3 14:30,10.5,0,81,0,18,0,62.1,0,15.6,0,13.1,0
2003/3/3 14:45,10.5,0,82,0,17.9,0,62.2,0,15.6,0,13.2,0
2003/3/3 15:00,10.6,0,84,0,17.8,0,62.1,0,15.6,0,13.2,0
2003/3/3 15:15,10.5,0,85,0,17.7,0,62.4,0,15.6,0,13.3,0
2003/3/3 15:30,10.6,0,83,0,17.6,0,62.8,0,15.5,0,13.3,0
2003/3/3 15:45,11,0,76,0,17.5,0,63.1,0,15.5,0,13.4,0
2003/3/3 16:00,11.1,0,66,0,17.4,0,63.3,0,15.5,0,13.4,0
2003/3/3 16:15,11.1,0,61,0,17.4,0,63.2,0,15.5,0,13.5,0
2003/3/3 16:30,11,0,65,0,17.3,0,63.3,0,15.5,0,13.5,0
2003/3/3 16:45,11,0,65,0,17.2,0,63.3,0,15.4,0,13.5,0
2003/3/3 17:00,10.9,0,67,0,17.2,0,63.4,0,15.4,0,13.6,0
2003/3/3 17:15,10.8,0,64,0,17.1,0,63.2,0,15.4,0,13.6,0
2003/3/3 17:30,10.8,0,59,0,17.1,0,63.5,0,15.4,0,13.7,0
2003/3/3 17:45,10.7,0,56,0,17,0,63.3,0,15.4,0,13.7,0
2003/3/3 18:00,10.7,0,55,0,16.9,0,63.3,0,15.3,0,13.8,0
2003/3/3 18:15,10.5,0,69,0,16.9,0,63.2,0,15.3,0,13.8,0
2003/3/3 18:30,10.4,0,71,0,16.9,0,62.9,0,15.3,0,13.8,0
2003/3/3 18:45,10.1,0,71,0,17.1,0,63,0,15.2,0,13.9,0
2003/3/3 19:00,9.9,0,71,0,17.4,0,62.8,0,15.2,0,13.9,0
2003/3/3 19:15,9.9,0,72,0,17.7,0,62.2,0,15.2,0,13.1,0
2003/3/3 19:30,8.5,0,78,0,17.8,0,61.5,0,15.1,0,13.1,0
2003/3/3 19:45,8.4,0,87,0,18.1,0,61,0,15.1,0,13.1,0
2003/3/3 20:00,8.2,0,91,0,18.3,0,60.7,0,15,0,12.7,0
2003/3/3 20:15,8,0,88,0,18.4,0,60.1,0,15,0,12.7,0
2003/3/3 20:30,7.8,0,84,0,18.6,0,60.6,0,15,0,12.8,0
2003/3/3 20:45,7.7,0,84,0,18.7,0,60.7,0,14.9,0,12.8,0
2003/3/3 21:00,7.5,0,84,0,18.8,0,58.9,0,14.9,0,12.5,0
2003/3/3 21:15,7.5,0,85,0,18.9,0,58.5,0,14.9,0,12.5,0
2003/3/3 21:30,7.4,0,84,0,19,0,58.3,0,14.8,0,12.6,0
2003/3/3 21:45,7.4,0,83,0,19.1,0,58.2,0,14.8,0,12.6,0
2003/3/3 22:00,7.4,0,82,0,19.1,0,57.3,0,14.8,0,12.7,0
2003/3/3 22:15,7.1,0,82,0,19.2,0,57.5,0,14.7,0,12.7,0
2003/3/3 22:30,6.7,0,87,0,19.3,0,57.3,0,14.7,0,12.8,0
2003/3/3 22:45,6.6,0,87,0,19.3,0,57.4,0,14.7,0,12.5,0
2003/3/3 23:00,6.7,0,88,0,19.2,0,57.6,0,14.6,0,12.6,0
2003/3/3 23:15,6.9,0,88,0,19.1,0,57.9,0,14.6,0,12.6,0
2003/3/3 23:30,6.4,0,84,0,18.9,0,58.3,0,14.5,0,12.7,0
2003/3/3 23:45,6.3,0,83,0,18.9,0,58.5,0,14.5,0,12.7,0
2003/3/4 0:00,5.8,0,80,0,18.8,0,58.5,0,14.5,0,12.7,0
2003/3/4 0:15,5.7,0,80,0,18.7,0,58.3,0,14.4,0,12.8,0
2003/3/4 0:30,5.6,0,82,0,18.6,0,57.9,0,14.4,0,12.6,0
2003/3/4 0:45,5.5,0,83,0,18.4,0,57.7,0,14.4,0,12.6,0
2003/3/4 1:00,5.4,0,82,0,18.3,0,57.7,0,14.3,0,12.7,0
2003/3/4 1:15,5.4,0,82,0,18.1,0,57.7,0,14.3,0,12.7,0
2003/3/4 1:30,5.5,0,81,0,17.9,0,57.6,0,14.2,0,12.8,0
2003/3/4 1:45,5.5,0,80,0,17.7,0,57.5,0,14.2,0,12.8,0
2003/3/4 2:00,5.5,0,79,0,17.5,0,57,0,14.1,0,12.8,0
2003/3/4 2:15,5.3,0,76,0,17.3,0,57.4,0,14.1,0,12.9,0
2003/3/4 2:30,5.3,0,75,0,17.2,0,57.8,0,14,0,12.9,0
2003/3/4 2:45,5.1,0,74,0,17,0,58,0,14,0,12.9,0
2003/3/4 3:00,5.2,0,73,0,16.9,0,58.2,0,13.9,0,13,0
2003/3/4 3:15,4.7,0,78,0,16.7,0,58.3,0,13.9,0,13,0
2003/3/4 3:30,4.6,0,77,0,16.6,0,58.3,0,13.8,0,13,0
2003/3/4 3:45,4.6,0,75,0,16.4,0,58.3,0,13.8,0,13.1,0
2003/3/4 4:00,4.7,0,74,0,16.3,0,58.3,0,13.7,0,13.1,0
2003/3/4 4:15,4.7,0,72,0,16.2,0,58.3,0,13.7,0,13.1,0
2003/3/4 4:30,4.7,0,72,0,16,0,58.5,0,13.7,0,13.1,0
2003/3/4 4:45,4.5,0,72,0,15.9,0,58.8,0,13.6,0,13.2,0
2003/3/4 5:00,4.5,0,72,0,15.8,0,59.2,0,13.6,0,13.2,0
2003/3/4 5:15,4.6,0,70,0,15.6,0,59.3,0,13.5,0,13.2,0
2003/3/4 5:30,4.5,0,72,0,15.5,0,59.2,0,13.5,0,13.2,0
2003/3/4 5:45,4.4,0,76,0,15.4,0,59.4,0,13.4,0,13.3,0
2003/3/4 6:00,4.2,0,78,0,15.3,0,59.5,0,13.4,0,13.3,0
2003/3/4 6:15,4.3,0,77,0,15.2,0,59.5,0,13.3,0,13.3,0
2003/3/4 6:30,3.9,0,78,0,15.1,0,59.6,0,13.3,0,13.3,0
2003/3/4 6:45,4.2,0,80,0,15,0,60.7,0,13.2,0,13.3,0
2003/3/4 7:00,4.4,0,81,0,15,0,61.6,0,13.2,0,13.4,0
2003/3/4 7:15,4.5,0,79,0,17.6,0,57.3,0,13.2,0,13.4,0
2003/3/4 7:30,4.8,0,80,0,19,0,52.5,0,13.1,0,13.4,0
2003/3/4 7:45,5,0,80,0,19.9,0,49.5,0,13.1,0,12.4,0
2003/3/4 8:00,5.3,0,79,0,20.8,0,48.9,0,13,0,12.4,0
2003/3/4 8:15,5.3,0,74,0,21.5,0,49.1,0,13,0,12.5,0
2003/3/4 8:30,5.4,0,68,0,19.9,0,52.4,0,13,0,12.3,0
2003/3/4 8:45,5.2,0,60,0,19.9,0,52.9,0,13.1,0,12.3,0
2003/3/4 9:00,5.5,0,63,0,20.6,0,51.5,0,13.1,0,12.3,0
2003/3/4 9:15,6.5,0,58,0,20.2,0,52,0,13.2,0,12.3,0
2003/3/4 9:30,6.2,0,54,0,19.5,0,53.7,0,13.2,0,12.4,0
2003/3/4 9:45,6.8,0,53,0,19.2,0,55.1,0,13.3,0,12.4,0
2003/3/4 10:00,6.7,0,50,0,18.9,0,56.2,0,13.3,0,12.4,0
2003/3/4 10:15,6.8,0,47,0,18.6,0,51.3,0,13.4,0,12.5,0
2003/3/4 10:30,8,0,43,0,18.4,0,52.6,0,13.2,0,12.3,0
2003/3/4 10:45,6.4,0,55,0,18.3,0,54.2,0,13.3,0,12.4,0
2003/3/4 11:00,6.5,0,53,0,18.1,0,54.7,0,13.4,0,12.4,0
2003/3/4 11:15,6.7,0,60,0,18,0,55,0,13.4,0,12.2,0
2003/3/4 11:30,8,0,49,0,17.9,0,56,0,13.6,0,12.2,0
2003/3/4 11:45,7.1,0,47,0,17.8,0,57.4,0,13.7,0,12.3,0
2003/3/4 12:00,6.7,0,53,0,17.7,0,58.4,0,13.7,0,12.3,0
2003/3/4 12:15,7.4,0,46,0,17.6,0,59.1,0,13.7,0,12.4,0
2003/3/4 12:30,7.5,0,48,0,17.6,0,60.2,0,13.7,0,12.4,0
2003/3/4 12:45,7.8,0,47,0,17.6,0,60.8,0,13.8,0,12.4,0
2003/3/4 13:00,8.2,0,43,0,17.6,0,60.2,0,13.8,0,12.5,0
2003/3/4 13:15,7.7,0,43,0,17.6,0,60.6,0,13.8,0,12.3,0
2003/3/4 13:30,8,0,42,0,17.5,0,60.7,0,13.8,0,12.3,0
2003/3/4 13:45,8.4,0,45,0,17.5,0,60.5,0,13.8,0,12.3,0
2003/3/4 14:00,8.8,0,42,0,17.4,0,60.5,0,13.8,0,12.4,0
2003/3/4 14:15,8.1,0,45,0,17.3,0,60.4,0,13.8,0,12.4,0
2003/3/4 14:30,8.3,0,45,0,17.2,0,60,0,13.8,0,12.4,0
2003/3/4 14:45,7.4,0,43,0,17,0,60.1,0,13.8,0,12.5,0
2003/3/4 15:00,7.9,0,46,0,16.9,0,60.1,0,13.8,0,12.5,0
2003/3/4 15:15,8,0,45,0,16.8,0,60,0,13.8,0,12.5,0
2003/3/4 15:30,7.7,0,43,0,16.7,0,59.8,0,13.7,0,12.5,0
2003/3/4 15:45,7.5,0,44,0,16.6,0,59.9,0,13.7,0,12.6,0
2003/3/4 16:00,7.6,0,43,0,16.5,0,59.6,0,13.7,0,12.3,0
2003/3/4 16:15,7.7,0,43,0,16.4,0,59.5,0,13.7,0,12.3,0
2003/3/4 16:30,7.4,0,42,0,16.3,0,59.5,0,13.6,0,12.3,0
2003/3/4 16:45,7.2,0,45,0,16.2,0,58.8,0,13.6,0,12.3,0
2003/3/4 17:00,7.1,0,46,0,16.1,0,58.7,0,13.6,0,12.4,0
2003/3/4 17:15,7.1,0,45,0,16,0,58.7,0,13.5,0,12.4,0
2003/3/4 17:30,6.7,0,46,0,15.9,0,58.6,0,13.3,0,12.4,0
2003/3/4 17:45,6.1,0,46,0,15.8,0,58.7,0,13.3,0,12.5,0
2003/3/4 18:00,6,0,46,0,15.8,0,58.4,0,13.2,0,12.5,0
2003/3/4 18:15,5.8,0,48,0,15.9,0,58.2,0,13.2,0,12.5,0
2003/3/4 18:30,5.6,0,50,0,16.1,0,58,0,13.2,0,12.5,0
2003/3/4 18:45,5.3,0,49,0,16.4,0,57.9,0,13.1,0,12.1,0
2003/3/4 19:00,5.4,0,51,0,16.5,0,57.9,0,13.1,0,12.1,0
2003/3/4 19:15,5.2,0,51,0,16.5,0,57.4,0,13.1,0,12,0
2003/3/4 19:30,5.1,0,51,0,16.5,0,56.8,0,13,0,12,0
2003/3/4 19:45,5.1,0,50,0,16.5,0,56.4,0,13,0,12.1,0
2003/3/4 20:00,5,0,49,0,16.5,0,56.1,0,12.9,0,12.1,0
2003/3/4 20:15,5.2,0,50,0,16.5,0,55.8,0,12.9,0,12.1,0
2003/3/4 20:30,4.9,0,47,0,18.1,0,53.1,0,12.8,0,12.1,0
2003/3/4 20:45,4.8,0,47,0,19.4,0,50.6,0,12.8,0,12.2,0
2003/3/4 21:00,4.8,0,47,0,20.3,0,47.9,0,12.8,0,12.2,0
2003/3/4 21:15,5,0,49,0,21.2,0,45.4,0,12.7,0,12.2,0
2003/3/4 21:30,4.9,0,51,0,21.6,0,44.2,0,12.7,0,12.2,0
2003/3/4 21:45,4.8,0,47,0,21.9,0,43.2,0,12.6,0,12.2,0
2003/3/4 22:00,4.9,0,47,0,22.1,0,42.6,0,12.6,0,12.3,0
2003/3/4 22:15,4.8,0,46,0,20.4,0,45.7,0,12.6,0,12.1,0
2003/3/4 22:30,4.7,0,46,0,19.7,0,47.5,0,12.6,0,12.1,0
2003/3/4 22:45,4.8,0,46,0,19.2,0,48.5,0,12.5,0,12.1,0
2003/3/4 23:00,4.5,0,52,0,18.9,0,49.3,0,12.5,0,12.1,0
2003/3/4 23:15,4.5,0,52,0,18.6,0,49.4,0,12.5,0,12.2,0
2003/3/4 23:30,4.4,0,53,0,18.4,0,49.4,0,12.5,0,11.9,0
2003/3/4 23:45,4.2,0,53,0,18.3,0,51.3,0,12.4,0,12,0
2003/3/5 0:00,4.2,0,51,0,18.2,0,52.4,0,12.4,0,12,0
2003/3/5 0:15,3.9,0,51,0,18.1,0,52.9,0,12.3,0,12,0
2003/3/5 0:30,4.1,0,54,0,18,0,52.8,0,12.3,0,12,0
2003/3/5 0:45,4.3,0,52,0,18,0,52.3,0,12.3,0,12,0
2003/3/5 1:00,4,0,53,0,17.8,0,51.8,0,12.2,0,12.1,0
2003/3/5 1:15,3.9,0,56,0,17.5,0,51.5,0,12.2,0,12.1,0
2003/3/5 1:30,3.9,0,57,0,17.2,0,51.5,0,12.1,0,12.1,0
2003/3/5 1:45,4,0,57,0,17,0,51.7,0,12.1,0,12.1,0
2003/3/5 2:00,4.1,0,57,0,16.7,0,51.7,0,12,0,12.1,0
2003/3/5 2:15,4.1,0,57,0,16.5,0,51.8,0,12,0,12.2,0
2003/3/5 2:30,4,0,57,0,16.3,0,51.8,0,12,0,12.2,0
2003/3/5 2:45,3.9,0,58,0,16,0,51.7,0,11.9,0,12.2,0
2003/3/5 3:00,3.9,0,59,0,15.8,0,52,0,11.9,0,12.2,0
2003/3/5 3:15,3.4,0,60,0,15.6,0,53.2,0,11.8,0,12.2,0
2003/3/5 3:30,3.3,0,60,0,15.4,0,53.7,0,11.8,0,12.2,0
2003/3/5 3:45,3.3,0,61,0,15.2,0,54,0,11.7,0,12.2,0
2003/3/5 4:00,3.4,0,59,0,15.1,0,54.3,0,11.7,0,12.3,0
2003/3/5 4:15,3.5,0,56,0,14.9,0,54.3,0,11.7,0,12.3,0
2003/3/5 4:30,3.6,0,56,0,14.8,0,54.3,0,11.6,0,12.3,0
2003/3/5 4:45,3.5,0,56,0,14.6,0,54.5,0,11.6,0,12.3,0
2003/3/5 5:00,3.5,0,57,0,14.5,0,54.5,0,11.5,0,12.3,0
2003/3/5 5:15,3.5,0,57,0,14.4,0,54.7,0,11.5,0,12.3,0
2003/3/5 5:30,3.4,0,59,0,14.3,0,54.9,0,11.4,0,12.3,0
2003/3/5 5:45,3.3,0,59,0,14.2,0,55.2,0,11.4,0,12.3,0
2003/3/5 6:00,3.2,0,60,0,14.1,0,55,0,11.3,0,12.4,0
2003/3/5 6:15,3.3,0,61,0,16.9,0,50.8,0,11.3,0,12.4,0
2003/3/5 6:30,3.4,0,61,0,18.1,0,48.3,0,11.3,0,12.4,0
2003/3/5 6:45,3.6,0,61,0,19.2,0,46.8,0,11.2,0,12.4,0
2003/3/5 7:00,3.6,0,61,0,19.7,0,45.7,0,11.2,0,12.4,0
2003/3/5 7:15,3.8,0,62,0,20.2,0,46.4,0,11.2,0,12.2,0
2003/3/5 7:30,3.9,0,62,0,20,0,47.5,0,11.2,0,12,0
2003/3/5 7:45,4.1,0,61,0,20.3,0,47.4,0,11.3,0,11.8,0
2003/3/5 8:00,4.4,0,60,0,20.6,0,46.7,0,11.3,0,11.9,0
2003/3/5 8:15,4.8,0,60,0,20.7,0,46,0,11.3,0,11.9,0
2003/3/5 8:30,5.2,0,59,0,20.9,0,45.1,0,11.3,0,11.9,0
2003/3/5 8:45,5.3,0,58,0,19.1,0,47.4,0,11.3,0,11.9,0
2003/3/5 9:00,5.8,0,58,0,18.4,0,48.9,0,11.3,0,12,0
2003/3/5 9:15,6.4,0,57,0,18,0,50.2,0,11.4,0,12,0
2003/3/5 9:30,6.6,0,54,0,17.8,0,50.6,0,11.4,0,12,0
2003/3/5 9:45,6.3,0,50,0,17.6,0,50.9,0,11.4,0,12,0
2003/3/5 10:00,6.5,0,49,0,17.5,0,50.9,0,11.4,0,12,0
2003/3/5 10:15,6.3,0,48,0,17.4,0,50.7,0,11.4,0,12,0
2003/3/5 10:30,6.5,0,48,0,17.2,0,51,0,11.4,0,12.1,0
2003/3/5 10:45,6.5,0,48,0,17.1,0,51.2,0,11.4,0,12.1,0
2003/3/5 11:00,6.8,0,47,0,17,0,51.5,0,11.4,0,12.1,0
2003/3/5 11:15,7.4,0,47,0,16.9,0,52.7,0,11.4,0,11.9,0
2003/3/5 11:30,7.8,0,42,0,17,0,53.8,0,11.4,0,12,0
2003/3/5 11:45,8.1,0,42,0,16.9,0,53.3,0,11.4,0,12,0
2003/3/5 12:00,8.8,0,41,0,16.8,0,53.5,0,11.5,0,12,0
2003/3/5 12:15,9,0,39,0,16.8,0,53.4,0,11.5,0,12,0
2003/3/5 12:30,9.2,0,36,0,16.8,0,53.5,0,11.6,0,12,0
2003/3/5 12:45,9.8,0,34,0,16.8,0,53.4,0,11.6,0,12.1,0
2003/3/5 13:00,10.5,0,35,0,16.8,0,53.2,0,11.6,0,12.1,0
2003/3/5 13:15,9.5,0,34,0,16.8,0,52.7,0,11.7,0,12.1,0
2003/3/5 13:30,9.6,0,35,0,16.7,0,52.7,0,11.7,0,11.8,0
2003/3/5 13:45,9.9,0,34,0,16.6,0,52.8,0,11.9,0,11.8,0
2003/3/5 14:00,8.8,0,36,0,16.4,0,52.8,0,11.9,0,11.9,0
2003/3/5 14:15,8.3,0,37,0,16.2,0,53,0,12,0,11.9,0